Weather in Dzhonka

Russia / Khabarovsk Krai     49°40′23″N   136°56′36″E
temp.,
°C
wind,
m/s
gust,
m/s
humid.,
%
clouds,
%
prec.,
mm/h
press.,
hPa
HPBL,
m
27 february, sat
sat2701:00−18ssw3497100 0.1 103278
04:00−19ssw3498100 0.2 1033113
07:00−21ssw3498100 0.0 103492
10:00−18sw499388 0.1 1032323
13:00−14sw6118795 0.0 1030564
16:00−11sw6108496 0.0 1027543
19:00−12sw3691100 0.0 1025219
22:00−13sw1291100 0.0 102222
28 february, sun
sun2801:00−13wsw2392100 0.0 101879
04:00−10sw4995100 1.4 1015443
07:00−8sw71494100 0.6 1014720
10:00−6sw91490100 0.9 1013723
13:00−5wsw81380100 0.0 1013889
16:00−5sw9147495 0.0 10141030
19:00−11ssw7157568 0.0 1017382
22:00−13ssw6128154 0.0 1020332
1 march, mon
mon101:00−16s6118165 0.0 1021255
04:00−18s5118862 0.0 1023386
07:00−19s61194100 0.2 1025454
10:00−19ssw71086100 0.3 1027667
13:00−16ssw71076100 0.0 1026880
16:00−15sw697697 0.0 1026549
19:00−16sw7147416 0.0 1028355
22:00−19sw612817 0.0 1029257
2 march, tue
tue201:00−21ssw611840 0.0 1029216
04:00−23ssw611860 0.0 1030212
07:00−25s58940 0.0 1031123
10:00−21ssw58860 0.0 1031398
13:00−19sw57780 0.0 1029703
16:00−18sw46780 0.0 1028517
19:00−24ssw11880 0.0 103020
22:00−23sse23900 0.0 103220
3 march, wed
wed301:00−25s34910 0.0 103126
04:00−26ssw33940 0.0 103023
07:00−27ssw34947 0.0 102937
10:00−22ssw368912 0.0 1028271
13:00−17sw588574 0.0 1024474
16:00−15wsw478487 0.0 1021399
19:00−17wsw1289100 0.0 101921
22:00−17sw1289100 0.0 101821